{"data":{"norad_id":63709,"epoch":"2026-05-24T22:27:20.350944Z","epoch_age_seconds":76499,"freshness":"FRESH","line1":"1 63709U 25087N   26144.93565221  .00010651  00000+0  37116-3 0  9990","line2":"2 63709  53.1579 225.3687 0001660  88.4577 271.6614 15.30203983 60874","mean_motion":15.30203983,"eccentricity":0.000166,"inclination_deg":53.1579,"raan_deg":225.3687,"arg_perigee_deg":88.4577,"mean_anomaly_deg":271.6614,"bstar":0.00037116,"rev_number":6087,"period_min":94.105100757668,"perigee_km":474.06552245569,"apogee_km":476.34083139443,"semimajor_km":6853.3401769251,"source":"CELESTRAK","updated_at":"2026-05-25T13:38:20.098622Z"}}